User: anonymous   Login
Location: Clinton NY
(43.0598°N, 75.3602°W)
Time: 23:55:23
(UTC-04:00)
Language:

Cosmos-2242 - Orbit

View from above orbital plane
View from above orbital plane
View from above satellite
View from above satellite

Ground track
Ground track

The orbit data is extracted from the following two-line orbital elements,

1 22626U 93024A   15243.17857679  .00000518  00000-0  54707-4 0  9992
2 22626 082.5226 300.0407 0020493 134.8066 225.4822 14.87096473208638
Epoch (UTC): 31 August 2015 04:17:09
Eccentricity: 0.0020493
inclination: 82.5226°
perigee height: 593 km
apogee height: 621 km
right ascension of ascending node: 300.0407°
argument of perigee: 134.8066°
revolutions per day: 14.87096473
mean anomaly at epoch: 225.4822°
orbit number at epoch: 20863

The dashed part of the orbit path shows where the satellite is in the earth's shadow,  

DLR